GW0092 Weather Reports


time (UTC)temp
F
wind
direction
speed
knots
gust
knots
rain 1hr
in
rain 24hr
in
rain mn
in
humidity
%
barometer
mb
20260509031602 56 134 0.9 2.6 0.00 0.00 0.00 76 1015.2
20260509030110 56 131 0.9 3.5 0.00 0.00 0.00 73 1015.0
20260509024558 56 96 0.0 1.7 0.00 0.00 0.00 74 1015.0
20260509023057 56 115 0.9 1.7 0.00 0.00 0.00 78 1015.0
20260509021555 55 160 0.0 2.6 0.00 0.00 0.00 78 1015.1
20260509014555 56 0 0.0 5.2 0.00 0.00 0.00 76 1015.0
20260509013059 55 117 0.0 2.6 0.00 0.00 0.00 76 1014.8
20260509011557 56 0 0.9 2.6 0.00 0.00 0.00 75 1014.9
20260509010054 56 127 0.0 3.5 0.00 0.00 0.00 76 1014.9
20260509004603 56 141 0.9 2.6 0.00 0.00 0.00 78 1014.7
20260509003058 56 159 0.9 3.5 0.00 0.00 0.00 77 1014.5
20260509001552 56 140 0.9 1.7 0.00 0.00 0.00 75 1014.5
20260508234557 58 82 0.9 4.3 0.00 0.02 0.00 71 1014.3
20260508233057 58 134 1.7 4.3 0.00 0.02 0.00 71 1014.2
20260508231555 60 134 0.9 3.5 0.00 0.02 0.00 71 1014.2
20260508230054 61 157 0.9 3.5 0.00 0.02 0.00 68 1014.1
20260508224635 61 117 0.9 6.1 0.00 0.09 0.00 66 1014.1
20260508223055 62 143 2.6 7.0 0.00 0.09 0.00 64 1014.1
20260508221554 62 130 0.9 9.6 0.00 0.09 0.00 63 1014.0
20260508220057 63 134 0.9 5.2 0.00 0.09 0.00 59 1013.9
20260508214552 63 116 1.7 7.0 0.00 0.11 0.00 61 1013.9
20260508213054 64 129 2.6 8.7 0.00 0.11 0.00 59 1013.9
20260508211557 63 148 1.7 9.6 0.00 0.11 0.00 60 1013.8
20260508210056 64 211 0.9 7.0 0.00 0.11 0.00 63 1014.0
20260508204555 63 172 0.9 10.4 0.00 0.11 0.00 62 1014.1
20260508203103 64 42 0.9 8.7 0.00 0.11 0.00 61 1014.0
20260508201602 65 58 0.9 4.3 0.00 0.11 0.00 55 1014.0
20260508200054 64 142 1.7 5.2 0.00 0.11 0.00 59 1014.1
20260508194553 64 139 0.9 6.1 0.00 0.11 0.00 58 1014.2
20260508193100 64 165 1.7 7.8 0.00 0.11 0.00 59 1014.2
20260508191555 63 91 1.7 4.3 0.00 0.11 0.00 56 1014.2
20260508190051 62 125 2.6 8.7 0.00 0.11 0.00 56 1014.4
20260508184556 62 149 2.6 8.7 0.00 0.11 0.00 56 1014.9
20260508183053 63 157 1.7 7.0 0.00 0.11 0.00 55 1014.7
20260508181556 63 75 2.6 6.1 0.00 0.11 0.00 51 1014.9
20260508180056 63 148 1.7 7.8 0.00 0.11 0.00 52 1015.2
20260508174558 63 221 0.9 3.5 0.00 0.11 0.00 56 1015.2
20260508173054 63 193 1.7 6.1 0.00 0.11 0.00 53 1015.4
20260508171555 64 110 1.7 6.1 0.00 0.11 0.00 51 1015.6
20260508170100 65 194 0.0 3.5 0.00 0.11 0.00 54 1015.3
20260508164554 64 77 1.7 7.0 0.00 0.11 0.00 58 1015.5
20260508163055 64 326 1.7 6.1 0.00 0.11 0.00 53 1015.8
20260508161600 64 349 0.0 4.3 0.00 0.11 0.00 41 1015.9
20260508160055 63 11 1.7 7.0 0.00 0.11 0.00 42 1015.9
20260508154611 63 316 0.9 13.0 0.00 0.11 0.00 44 1015.9
20260508153057 62 301 2.6 6.1 0.00 0.11 0.00 43 1015.9
20260508151554 61 251 2.6 7.0 0.00 0.11 0.00 45 1016.2
20260508150108 61 329 0.9 6.1 0.00 0.11 0.00 53 1016.2
20260508144556 60 328 0.9 7.0 0.00 0.11 0.00 55 1016.2
20260508143124 60 334 0.9 6.1 0.00 0.11 0.00 60 1016.3
20260508141553 59 16 0.9 7.0 0.00 0.11 0.00 58 1016.3
20260508140107 58 334 2.6 6.1 0.00 0.11 0.00 60 1016.1
20260508134556 57 340 2.6 7.8 0.00 0.11 0.00 62 1016.1
20260508133104 57 317 3.5 8.7 0.00 0.11 0.00 70 1016.0
20260508131601 55 335 3.5 7.8 0.00 0.11 0.00 70 1016.1
20260508130054 54 344 3.5 7.0 0.00 0.11 0.00 72 1016.0
20260508124551 53 313 2.6 6.1 0.00 0.12 0.00 79 1015.9
20260508123054 52 340 1.7 7.0 0.00 0.12 0.00 79 1015.7
20260508121552 51 18 3.5 6.1 0.00 0.12 0.00 82 1015.6
20260508120052 51 353 2.6 6.1 0.00 0.12 0.00 83 1015.5
20260508114557 50 286 3.5 5.2 0.00 0.12 0.00 86 1015.3
20260508113056 49 305 1.7 5.2 0.00 0.12 0.00 89 1015.1
20260508111603 48 323 2.6 5.2 0.00 0.12 0.00 91 1014.9
20260508110056 47 297 1.7 3.5 0.00 0.12 0.00 93 1014.6
20260508104551 46 323 0.9 1.7 0.00 0.12 0.00 95 1014.5
20260508103054 46 308 0.9 1.7 0.00 0.12 0.00 95 1014.4
20260508101553 47 309 0.9 1.7 0.00 0.12 0.00 95 1014.2
20260508100054 47 274 1.7 3.5 0.00 0.12 0.00 95 1014.0
20260508094552 47 311 1.7 3.5 0.00 0.12 0.00 95 1013.9
20260508093054 47 271 0.9 4.3 0.00 0.12 0.00 97 1013.5
20260508091607 47 274 0.9 3.5 0.00 0.12 0.00 97 1013.3
20260508090055 47 1 0.9 3.5 0.00 0.12 0.00 97 1013.1
20260508084603 47 323 0.0 2.6 0.00 0.15 0.00 98 1013.0
20260508083103 47 311 0.9 2.6 0.00 0.15 0.00 98 1012.8
20260508081555 46 331 0.0 1.7 0.00 0.15 0.00 98 1012.6
20260508080106 46 330 0.9 2.6 0.00 0.15 0.00 97 1012.4
20260508074554 46 321 0.9 2.6 0.00 0.15 0.00 97 1012.4
20260508073056 47 0 0.0 2.6 0.00 0.15 0.00 97 1012.1
20260508071550 47 314 0.9 2.6 0.00 0.15 0.00 97 1011.9
20260508070057 46 340 0.9 2.6 0.00 0.15 0.00 97 1011.8
20260508064559 46 337 0.0 2.6 0.00 0.21 0.00 97 1011.5
20260508063054 47 311 0.9 1.7 0.00 0.21 0.00 97 1011.5
20260508061552 47 321 0.9 2.6 0.00 0.21 0.00 98 1011.6
20260508060052 47 329 0.9 2.6 0.00 0.21 0.00 98 1011.6
20260508054556 47 339 0.9 1.7 0.00 0.21 0.00 98 1011.6
20260508053059 47 323 0.0 0.9 0.00 0.21 0.00 98 1011.7
20260508051612 47 345 0.0 0.9 0.00 0.21 0.00 98 1011.8
20260508050111 48 337 0.0 0.9 0.00 0.21 0.00 98 1011.7
20260508044556 48 0 0.0 0.0 0.00 0.21 0.00 98 1011.6
20260508043105 49 0 0.0 1.7 0.00 0.21 0.00 98 1011.6
20260508041603 49 294 0.9 2.6 0.00 0.21 0.00 98 1011.4
20260508034552 49 324 0.9 4.3 0.00 0.21 0.21 98 1011.3
20260508033100 49 304 0.9 2.6 0.00 0.21 0.21 98 1011.3